Hail, Saudi Arabia

4:03 PM AST on February 06, 2016 (GMT +0300)
Hail

Weather History for OEHL - November, 2012

Change the Weather History Date:

Thursday, November 1, 2012

  Actual Average Record
Temperature  
Mean Temperature 72 °F -  
Max Temperature 87 °F 73 °F 87 °F (1998)
Min Temperature 57 °F 49 °F 44 °F (1998)
Cooling Degree Days 7    
Growing Degree Days 22 (Base 50)    
Moisture  
Dew Point 43 °F    
Average Humidity 32    
Maximum Humidity 59    
Minimum Humidity 11    
Precipitation  
Precipitation 0.00 in - - ()
Sea Level Pressure  
Sea Level Pressure 30.12 in    
Wind  
Wind Speed 4 mph ()    
Max Wind Speed 21 mph    
Max Gust Speed -    
Visibility 6.1 miles    
Events      
Averages and records for this station are not official NWS values.
T = Trace of Precipitation, MM = Missing Value Source: Averaged Metar Reports

Daily Weather History Graph

Daily Weather History Graph

Search for Another Location

Airport or City:

Trip Planner

Search our weather history database for the weather conditions in past years. The results will help you decide how hot, cold, wet, or windy it might be!

Date:

Astronomy

Nov. 01, 2012 Rise Set
Actual Time 6:23 AM AST 5:29 PM AST
Civil Twilight 5:59 AM AST 5:53 PM AST
Nautical Twilight 5:32 AM AST 6:21 PM AST
Astronomical Twilight 5:04 AM AST 6:48 PM AST
Moon 7:20 PM AST (11/1) 8:27 AM AST (11/1)
Length of Visible Light 11h 53m
Length of Day
11h 05m
Waning Gibbous, 94% of the Moon is Illuminated
Nov 1
Waning Gibbous
Nov 7
Last Quarter
Nov 14
New
Nov 20
First Quarter
Nov 28
Full

Hourly Weather History & Observations

Time (AST) Temp. Dew Point Humidity Pressure Visibility Wind Dir Wind Speed Gust Speed Precip Events Conditions
12:00 AM 67 °F 45 °F 33%  in 6 mi NNW 4.6 mph - -  
12:00 AM 68.0 °F 44.6 °F 43% 30.15 in - NNW 4.6 mph - N/A   Clear
1:00 AM 66.2 °F 44.6 °F 46% 30.15 in - Calm Calm - N/A   Clear
2:00 AM 64.4 °F 44.6 °F 49% 30.15 in - Calm Calm - N/A   Clear
3:00 AM 61 °F 46 °F 48%  in 6 mi Calm Calm - -  
3:00 AM 60.8 °F 46.4 °F 59% 30.15 in - Calm Calm - N/A   Clear
5:00 AM 60.8 °F 44.6 °F 55% 30.15 in - SSE 4.6 mph - N/A   Clear
6:00 AM 60 °F 41 °F 38%  in 6 mi Calm Calm - -   Scattered Clouds
6:00 AM 60.8 °F 41.0 °F 48% 30.12 in 6.2 mi Calm Calm - N/A   Partly Cloudy
8:00 AM 68.0 °F 41.0 °F 37% 30.15 in 6.2 mi SSE 6.9 mph - N/A   Scattered Clouds
9:00 AM 72 °F 43 °F 24%  in 6 mi SSE 6.9 mph - -   Partly Cloudy
9:00 AM 71.6 °F 42.8 °F 35% 30.18 in 6.2 mi SSE 6.9 mph - N/A   Scattered Clouds
10:00 AM 75.2 °F 44.6 °F 34% 30.15 in - South 6.9 mph - N/A   Clear
11:00 AM 80.6 °F 42.8 °F 26% 30.15 in - South 6.9 mph - N/A   Clear
12:00 PM 85 °F 43 °F 14%  in 6 mi South 6.9 mph - -   Clear
12:00 PM 84.2 °F 42.8 °F 23% 30.12 in - South 6.9 mph - N/A   Clear
1:00 PM 86.0 °F 41.0 °F 20% 30.09 in - South 2.3 mph - N/A   Clear
2:00 PM 87.8 °F 41.0 °F 19% 30.06 in - South 9.2 mph - N/A   Clear
3:00 PM 87 °F 41 °F 11%  in 6 mi East 4.6 mph - -   Clear
3:00 PM 86.0 °F 41.0 °F 20% 30.06 in - East 4.6 mph - N/A   Clear
4:00 PM 87.8 °F 41.0 °F 19% 30.06 in - SSE 2.3 mph - N/A   Clear
5:00 PM 80.6 °F 42.8 °F 26% 30.06 in - NNE 20.7 mph - N/A   Clear
6:00 PM 78 °F 43 °F 18%  in 6 mi NNE 13.8 mph - -   Clear
6:00 PM 78.8 °F 42.8 °F 28% 30.06 in - NNE 13.8 mph - N/A   Clear
7:00 PM 75.2 °F 42.8 °F 31% 30.09 in - NNE 13.8 mph - N/A   Clear
8:00 PM 73.4 °F 42.8 °F 33% 30.12 in - West 2.3 mph - N/A   Clear
9:00 PM 72 °F 43 °F 24%  in 6 mi NNE 9.2 mph - -  
9:00 PM 71.6 °F 42.8 °F 35% 30.12 in - NNE 9.2 mph - N/A   Clear
10:00 PM 71.6 °F 42.8 °F 35% 30.12 in - NNE 6.9 mph - N/A   Clear
11:00 PM 69.8 °F 42.8 °F 38% 30.12 in - North 2.3 mph - N/A   Clear